Weather History for KGSO - October, 2010

Change the Weather History Date:

Saturday, October 9, 2010

  Actual Average Record
Temperature  
Mean Temperature 66 °F 62 °F  
Max Temperature 83 °F 72 °F 91 °F (1939)
Min Temperature 49 °F 51 °F 33 °F (1987)
Degree Days  
Heating Degree Days 0 5  
Month to date heating degree days 33 35  
Since 1 July heating degree days 37 66  
Cooling Degree Days 1 1  
Month to date cooling degree days 5 18  
Year to date cooling degree days 1980 1465  
Growing Degree Days 16 (Base 50)    
Moisture  
Dew Point 45 °F    
Average Humidity 52    
Maximum Humidity 80    
Minimum Humidity 24    
Precipitation  
Precipitation 0.00 in 0.10 in 2.74 in (1976)
Month to date precipitation 0.00 0.91  
Year to date precipitation 37.08 33.89  
Sea Level Pressure  
Sea Level Pressure 30.02 in    
Wind  
Wind Speed 3 mph (NW)    
Max Wind Speed 12 mph    
Max Gust Speed 16 mph    
Visibility 10 miles    
Events      
T = Trace of Precipitation, MM = Missing Value Source: NWS Daily Summary

Daily Weather History Graph

Daily Weather History Graph

Search for Another Location

Airport or City:

Trip Planner

Search our weather history database for the weather conditions in past years. The results will help you decide how hot, cold, wet, or windy it might be!

Date:

Astronomy

Oct. 09, 2010 Rise Set
Actual Time 7:21 AM EDT 6:52 PM EDT
Civil Twilight 6:55 AM EDT 7:17 PM EDT
Nautical Twilight 6:25 AM EDT 7:47 PM EDT
Astronomical Twilight 5:56 AM EDT 8:17 PM EDT
Moon 9:32 AM EDT (10/9) 7:54 PM EDT (10/9)
Length of Visible Light 12h 22m
Length of Day
11h 30m
Waxing Crescent, 5% of the Moon is Illuminated
Oct 9
Waxing Crescent
Oct 14
First Quarter
Oct 22
Full
Oct 30
Last Quarter
Nov 6
New

Hourly Weather History & Observations

Time (EDT) Temp. Dew Point Humidity Pressure Visibility Wind Dir Wind Speed Gust Speed Precip Events Conditions
12:54 AM 59.0 °F 45.0 °F 60% 30.04 in 10.0 mi West 4.6 mph - N/A   Clear
1:54 AM 53.1 °F 45.0 °F 74% 30.04 in 10.0 mi WSW 3.5 mph - N/A   Clear
2:54 AM 55.0 °F 45.0 °F 69% 30.04 in 10.0 mi Calm Calm - N/A   Clear
3:54 AM 54.0 °F 46.0 °F 75% 30.02 in 10.0 mi SW 3.5 mph - N/A   Clear
4:54 AM 53.1 °F 46.0 °F 77% 30.01 in 10.0 mi Calm Calm - N/A   Clear
5:54 AM 50.0 °F 45.0 °F 83% 30.03 in 10.0 mi Calm Calm - N/A   Clear
6:54 AM 54.0 °F 45.0 °F 72% 30.04 in 10.0 mi West 3.5 mph - N/A   Clear
7:54 AM 53.1 °F 45.0 °F 74% 30.05 in 10.0 mi Calm Calm - N/A   Clear
8:54 AM 63.0 °F 46.9 °F 56% 30.06 in 10.0 mi NW 5.8 mph - N/A   Clear
9:54 AM 68.0 °F 46.0 °F 45% 30.07 in 10.0 mi NW 3.5 mph - N/A   Clear
10:54 AM 75.0 °F 42.1 °F 31% 30.06 in 10.0 mi North 8.1 mph - N/A   Clear
11:54 AM 77.0 °F 42.1 °F 29% 30.06 in 10.0 mi North 6.9 mph - N/A   Clear
12:54 PM 78.1 °F 41.0 °F 27% 30.04 in 10.0 mi North 6.9 mph - N/A   Clear
1:54 PM 80.1 °F 41.0 °F 25% 30.02 in 10.0 mi NNW 3.5 mph - N/A   Clear
2:54 PM 80.1 °F 43.0 °F 27% 29.99 in 10.0 mi WNW 6.9 mph - N/A   Clear
3:54 PM 82.0 °F 42.1 °F 24% 29.98 in 10.0 mi North 3.5 mph - N/A   Clear
4:54 PM 81.0 °F 42.1 °F 25% 29.98 in 10.0 mi Variable 3.5 mph - N/A   Clear
5:54 PM 81.0 °F 42.1 °F 25% 29.98 in 10.0 mi Calm Calm - N/A   Clear
6:54 PM 75.9 °F 44.1 °F 32% 29.98 in 10.0 mi Calm Calm - N/A   Clear
7:54 PM 70.0 °F 46.9 °F 44% 29.99 in 10.0 mi Calm Calm - N/A   Clear
8:54 PM 66.9 °F 50.0 °F 54% 30.00 in 10.0 mi Calm Calm - N/A   Clear
9:54 PM 63.0 °F 51.1 °F 65% 30.01 in 10.0 mi SW 3.5 mph - N/A   Clear
10:54 PM 62.1 °F 52.0 °F 70% 30.01 in 10.0 mi Calm Calm - N/A   Clear
11:54 PM 62.1 °F 51.1 °F 67% 30.01 in 10.0 mi Calm Calm - N/A   Clear